Theta_e
327 327 328 324 323 323 320 315 302 306 307 297 298 300 296 302 302 302 302 304 302 305 306 306 306 304 304 305 305 306 307 304 306 302 302 317 328 331 336 342 337 339 343 345 348 351 353 349 353 354 355 355 354 353 353 352 352 351 350 349 349 348 348 347 346 346 346 346 346 347 346 347 347 347 348 349 349 348 346 347 346 346 345 346 345 346 344 343 342 341 340 339 337 336 336 336 337
324 327 324 327 321 320 315 309 305 300 301 297 296 299 298 300 300 300 301 303 303 305 304 305 307 306 305 306 307 306 307 309 309 309 313 319 324 328 330 341 339 338 343 345 348 350 352 354 349 354 355 354 354 353 352 352 351 351 351 350 349 348 347 347 347 346 346 345 346 347 347 347 347 347 347 347 348 348 347 347 346 345 345 344 345 345 343 342 341 340 339 337 335 333 333 333 333
324 322 322 321 321 318 314 310 300 300 297 293 296 298 300 300 300 302 303 304 305 305 304 304 305 305 307 306 306 306 305 309 309 309 311 320 319 325 329 338 340 342 343 345 348 349 351 351 345 353 355 354 354 353 352 351 351 350 349 349 348 348 347 346 346 346 345 345 346 347 346 346 347 347 347 347 346 347 346 345 344 344 344 344 343 342 342 341 340 339 338 337 334 332 332 332 332
326 323 318 319 313 316 308 306 303 299 296 296 296 300 300 300 301 303 304 304 304 303 305 306 305 308 306 305 306 307 308 310 311 312 313 321 322 328 330 333 339 340 343 346 348 349 351 349 346 353 355 354 353 352 352 351 351 350 349 349 348 347 347 346 346 346 346 345 347 346 346 346 347 346 346 346 347 346 345 344 343 342 342 341 341 340 340 339 338 338 337 336 333 331 331 331 332
327 323 321 318 317 308 309 304 301 301 295 297 295 300 301 302 302 303 304 304 304 303 305 306 306 307 308 307 308 306 308 313 312 312 315 325 331 331 332 336 339 341 341 345 348 349 351 345 345 350 354 354 354 353 352 351 351 350 350 350 348 347 346 346 346 346 346 346 347 346 346 346 346 346 347 346 346 345 345 343 342 342 341 341 341 340 339 339 338 337 336 335 333 330 330 330 331
323 322 323 320 311 311 309 303 300 299 301 302 298 300 302 303 302 302 303 305 304 304 304 305 305 306 306 308 310 309 312 308 312 316 316 328 330 332 336 338 340 340 341 345 347 349 350 342 344 349 355 354 353 353 352 352 351 350 350 348 347 347 346 346 346 346 346 346 347 347 347 346 346 346 346 345 345 344 343 343 342 341 340 340 339 339 339 339 338 337 335 333 332 330 330 330 329
318 318 317 316 312 314 304 300 299 299 300 301 302 302 302 303 302 301 305 304 304 305 303 306 305 306 304 307 308 310 312 312 313 320 323 327 331 334 337 340 342 340 342 345 347 349 350 341 346 350 352 353 353 353 352 351 350 350 349 348 347 347 347 346 346 346 346 346 347 347 347 347 347 346 346 344 343 343 342 342 341 340 339 338 338 338 338 338 337 337 335 333 331 329 329 329 329
319 316 313 309 306 309 302 301 300 303 300 302 302 302 303 303 301 302 303 303 302 303 305 304 305 304 303 306 304 311 312 311 315 317 325 329 330 334 338 339 341 340 342 345 347 349 344 340 345 348 351 353 352 353 352 352 350 350 349 348 347 347 346 346 346 346 346 347 347 347 347 347 347 346 345 344 343 342 342 341 340 339 338 338 337 337 337 336 336 336 335 332 330 328 327 327 327
317 314 310 313 303 305 301 300 301 301 301 301 303 303 306 304 303 302 303 303 304 303 304 305 306 302 303 305 306 312 314 313 314 319 330 329 330 334 336 337 339 341 342 343 346 349 349 338 342 347 348 351 352 353 352 352 351 349 349 349 348 347 346 345 345 346 346 346 346 347 347 347 346 346 345 343 343 342 341 341 340 339 338 338 337 336 335 335 335 335 333 331 330 328 327 327 327
314 313 306 307 307 300 301 299 300 300 301 301 301 302 302 302 302 302 303 302 302 303 304 303 304 303 305 303 307 310 311 314 319 328 331 329 329 332 333 335 338 341 341 342 344 347 348 343 338 343 345 349 351 352 352 351 350 349 349 348 347 347 346 345 346 347 345 346 346 347 345 346 345 345 344 343 343 342 341 340 340 339 339 337 336 335 335 334 334 334 332 331 329 328 327 325 326
307 310 308 305 300 298 298 298 299 300 300 302 302 303 302 302 301 302 302 302 302 302 304 303 305 304 305 304 307 313 312 313 319 319 326 329 328 331 333 334 336 339 340 343 344 345 346 346 337 339 342 344 347 350 350 349 350 349 349 349 348 348 347 347 348 348 346 346 346 346 346 345 345 344 344 343 343 342 341 340 340 340 339 337 336 335 334 334 334 334 331 330 329 328 326 324 324
304 305 307 300 299 299 299 298 298 300 301 301 301 302 302 302 301 302 302 302 302 303 303 304 303 305 304 304 307 310 313 312 316 319 322 328 331 330 333 334 334 336 338 340 341 342 344 345 347 340 336 340 342 346 347 347 348 348 348 349 348 348 347 347 348 348 348 348 347 346 345 344 343 344 343 343 343 342 341 340 339 339 337 336 335 335 334 334 334 332 330 329 328 327 324 323 323
307 308 301 299 298 297 298 297 298 299 300 300 301 301 301 301 302 302 302 302 302 302 303 305 305 305 302 304 309 309 309 310 312 319 322 328 330 332 333 333 334 335 336 339 339 340 342 343 344 346 344 334 337 340 341 342 345 347 347 348 348 347 346 347 347 347 347 347 348 346 345 344 343 343 341 341 343 342 341 340 339 338 336 336 335 335 334 333 332 331 329 328 328 325 324 322 322
309 308 303 298 298 298 297 298 299 299 299 300 301 301 301 301 302 302 303 302 302 302 304 305 305 306 303 305 306 307 308 308 311 317 321 328 330 331 332 334 335 334 336 337 338 339 341 342 343 345 347 348 349 343 335 337 341 344 345 345 344 344 344 345 346 344 345 345 343 342 341 339 340 342 342 342 342 341 341 340 340 337 336 335 335 335 334 332 332 331 329 328 327 326 325 322 318
310 306 305 301 298 299 298 297 298 299 298 301 300 300 301 303 302 302 302 301 303 305 304 305 307 303 301 302 304 305 305 305 312 319 324 328 329 329 332 332 332 335 334 336 338 338 339 341 342 344 345 346 347 348 350 347 334 338 341 341 340 342 342 341 341 341 340 339 338 337 335 332 333 336 335 336 339 337 336 334 338 337 336 335 335 334 333 332 331 330 329 328 326 325 324 321 316
310 307 304 299 296 298 298 298 296 300 298 301 299 298 300 302 301 302 303 303 305 307 303 304 305 304 305 304 302 303 303 305 313 320 323 324 326 328 329 328 329 330 332 333 336 338 338 339 341 342 343 344 346 347 348 349 337 332 336 338 338 339 338 338 338 338 333 331 328 328 328 334 331 336 327 336 332 334 332 334 334 337 336 335 335 334 333 332 331 330 329 328 326 324 322 317 313
308 310 300 298 295 295 297 298 299 297 300 301 300 301 301 301 303 302 302 303 301 304 303 305 305 306 304 302 302 303 305 308 314 317 317 316 318 319 323 322 322 329 328 331 332 334 336 338 338 340 341 343 345 346 347 347 346 331 335 332 332 334 335 334 335 330 324 320 325 321 325 348 345 344 340 341 326 338 325 326 332 335 335 335 335 334 332 331 331 330 329 328 325 323 318 313 310
309 302 299 297 297 296 299 298 301 300 300 301 301 300 301 300 303 304 302 301 302 303 303 306 304 304 304 303 306 306 307 308 309 309 309 311 312 311 313 313 314 315 319 323 328 330 332 335 337 338 340 342 343 345 346 347 347 340 347 348 346 339 333 330 339 348 335 347 326 336 346 343 342 343 344 335 339 337 332 324 326 331 334 334 333 334 333 331 331 330 330 328 325 321 318 325 317
304 300 300 296 298 299 301 301 302 300 301 302 301 299 300 301 301 303 301 303 302 302 304 304 304 303 305 306 306 306 306 306 307 307 307 307 307 307 308 310 310 311 312 313 316 318 323 332 335 337 339 341 342 343 345 346 347 346 347 347 348 337 341 343 345 346 345 345 345 346 344 344 343 342 342 339 339 328 336 322 325 328 331 331 331 332 333 331 330 330 330 327 324 320 325 325 322
304 304 298 299 301 300 300 301 302 302 301 301 302 300 299 302 301 303 301 301 302 301 302 303 303 302 303 304 305 305 306 306 306 307 306 306 306 307 307 307 308 310 310 311 312 316 318 323 332 336 337 339 340 342 343 345 346 345 345 345 347 346 347 345 343 345 345 345 344 344 343 344 344 342 327 323 327 335 332 321 323 324 325 326 325 329 330 331 331 331 329 325 322 324 326 324 323
304 302 298 300 300 299 302 301 302 302 300 301 301 299 299 301 301 301 301 300 302 302 302 300 300 301 303 304 304 305 304 305 305 305 305 305 306 307 306 307 307 308 310 311 314 314 315 315 324 333 336 338 340 341 342 343 344 346 344 344 346 346 346 347 346 345 345 345 344 343 344 344 343 341 341 340 340 338 336 334 333 334 335 335 323 336 334 333 330 332 329 326 329 328 326 324 324
304 301 302 302 299 300 302 302 301 301 298 300 299 299 301 300 300 300 300 298 300 299 299 300 301 302 302 302 302 304 303 303 303 303 304 304 304 305 306 307 308 310 311 312 314 314 315 315 316 327 334 336 338 340 341 342 343 343 344 342 343 343 342 345 344 344 345 344 343 344 343 342 342 340 340 339 338 338 337 337 337 337 337 336 333 335 334 333 332 332 331 330 328 327 326 324 322
300 301 301 301 302 301 303 302 300 299 300 299 300 301 300 300 300 300 300 300 299 299 301 302 301 301 301 302 302 302 302 302 302 302 302 303 304 305 305 306 307 307 310 312 314 315 316 317 315 322 331 334 337 339 341 341 343 343 345 346 344 341 342 342 342 342 343 343 342 343 341 341 340 340 339 339 338 338 337 336 335 336 336 335 336 334 334 333 332 331 331 329 327 326 324 323 320
300 299 300 301 301 301 302 302 299 299 299 300 300 299 299 300 299 298 299 298 298 301 302 301 302 302 302 301 301 301 301 301 301 302 302 302 303 303 305 305 306 308 310 312 314 314 315 316 316 317 328 333 335 338 339 340 341 342 345 344 340 335 339 341 340 342 343 342 341 343 341 341 339 338 338 338 338 338 337 338 337 336 335 335 335 335 333 333 331 331 329 326 326 326 324 322 320
300 299 301 300 298 301 302 301 299 299 300 301 298 298 300 300 299 299 298 297 299 300 301 301 301 301 301 301 300 300 301 301 301 302 303 304 303 305 306 306 306 307 307 310 312 314 316 317 317 317 327 331 334 336 337 339 340 340 341 343 341 338 341 341 343 342 342 342 340 340 338 340 339 338 337 337 339 337 337 337 335 335 336 335 335 334 334 333 332 331 328 325 325 325 323 323 321
300 300 300 300 300 300 301 299 299 299 299 298 298 300 299 299 299 298 298 297 299 301 301 301 301 300 299 299 299 299 299 300 300 301 301 303 303 304 304 304 304 304 306 308 310 314 317 319 319 321 326 329 333 334 336 337 339 340 340 338 342 335 339 339 341 341 341 341 339 337 336 338 338 339 338 338 337 336 337 337 336 335 335 334 334 333 334 333 331 328 327 325 325 325 325 323 323
300 299 299 299 301 298 301 299 300 297 299 298 298 300 298 298 297 298 297 296 300 301 300 300 300 298 298 298 298 299 299 299 299 300 301 302 302 302 303 303 302 303 305 307 309 312 315 319 321 322 325 329 333 333 336 336 339 336 338 339 337 338 337 336 336 336 338 339 338 338 336 334 333 335 337 338 336 336 337 336 333 332 330 328 331 332 331 330 330 328 328 327 326 325 325 322 322
299 298 299 299 300 300 300 298 298 299 298 297 298 298 298 298 298 298 297 297 298 300 299 299 299 298 298 298 298 299 299 299 300 300 299 299 300 300 301 300 301 302 304 304 306 310 314 317 321 323 324 330 333 330 336 336 337 338 338 333 333 331 331 331 331 332 328 329 331 332 331 330 331 333 333 333 332 330 327 326 326 326 326 325 325 325 325 327 325 324 323 322 322 323 321 321 320
298 298 298 300 301 301 299 298 298 296 299 296 299 297 296 297 296 297 298 298 300 300 299 298 297 297 298 298 298 298 298 299 299 299 298 299 300 301 300 300 300 301 303 303 305 309 310 314 317 324 329 330 333 333 332 331 330 329 327 326 325 324 324 323 323 323 324 324 325 327 327 327 327 327 328 328 327 325 323 323 321 320 321 321 321 321 320 321 321 321 319 320 320 321 322 321 320
297 299 297 298 299 300 297 298 297 299 298 295 297 295 298 295 296 299 300 298 300 300 299 298 297 297 297 297 298 298 298 298 298 298 298 299 299 300 299 300 300 300 301 304 305 307 309 315 318 320 323 323 322 323 322 322 322 321 322 320 319 320 320 319 319 319 320 321 320 321 323 324 325 326 326 326 326 323 322 321 321 319 319 318 317 317 316 316 315 315 314 317 314 317 318 318 317
298 297 297 297 296 297 298 298 298 298 296 296 298 296 298 295 296 299 299 297 297 299 297 297 296 296 297 297 297 297 297 298 297 297 298 299 299 300 300 300 300 300 301 302 303 305 308 313 317 319 321 321 320 319 318 317 317 318 318 317 315 315 316 316 316 316 316 317 317 317 319 320 321 322 323 322 320 321 320 318 318 317 317 317 317 317 316 315 315 314 315 315 315 315 314 313 311
297 296 296 296 295 298 298 297 296 298 296 298 298 296 299 296 297 298 298 298 300 298 296 296 295 296 296 296 296 297 297 298 297 297 297 298 298 299 299 299 300 300 300 300 302 305 306 308 316 318 319 318 316 315 314 312 310 310 310 310 310 309 309 311 312 312 312 312 314 314 316 318 320 320 320 319 318 318 317 316 316 317 317 317 316 316 317 316 316 315 313 315 316 315 314 313 310
296 295 296 295 295 296 297 297 296 296 296 298 298 297 299 296 296 297 297 298 298 297 295 295 295 294 295 295 296 296 297 297 297 297 296 297 298 298 299 299 299 299 300 300 300 303 305 305 308 314 314 313 312 311 310 308 307 305 305 305 305 305 304 304 305 306 307 307 308 309 311 314 316 317 317 317 316 316 315 315 314 315 315 315 315 315 314 315 315 313 309 308 311 312 312 311 311
296 295 295 297 294 296 295 296 297 298 297 297 298 296 298 297 295 296 297 297 297 297 295 294 294 295 295 295 295 296 296 296 295 295 295 296 297 297 298 299 299 299 299 300 300 302 303 304 305 307 309 309 309 309 307 306 305 305 304 303 303 302 302 301 301 301 302 304 303 302 304 307 309 310 312 313 312 313 313 313 313 313 313 314 313 312 311 312 312 313 311 310 310 312 310 309 309
296 294 293 294 293 293 295 295 296 297 297 297 297 296 297 300 296 297 295 296 297 296 295 294 294 294 294 294 295 294 295 294 294 295 295 296 297 297 298 299 299 299 299 299 300 302 303 304 304 304 306 308 307 307 307 305 304 303 303 303 301 300 300 300 300 299 299 300 300 301 302 302 303 306 308 308 307 308 308 308 309 310 311 310 309 308 307 308 309 309 311 311 311 309 308 307 305
296 296 296 295 294 294 293 297 296 296 296 296 297 296 298 300 298 295 296 296 296 294 294 294 294 294 294 294 294 294 294 293 294 295 295 296 296 297 297 298 299 299 299 299 300 301 302 304 305 305 305 307 308 306 305 304 303 302 301 301 300 299 299 299 299 298 299 298 300 301 300 301 301 302 304 305 305 304 304 305 305 307 307 306 305 304 304 305 306 307 307 307 309 308 306 305 305
295 296 295 294 294 295 297 295 296 295 295 295 296 297 297 298 299 295 295 295 295 294 294 294 293 293 293 293 293 293 293 293 294 295 295 295 296 296 297 298 299 299 298 299 300 299 300 301 303 302 304 305 307 308 307 306 303 301 300 299 299 299 298 299 298 299 299 299 300 300 300 300 301 302 303 305 305 303 303 304 304 304 305 304 304 303 304 305 305 307 307 306 306 306 303 304 304
295 295 294 294 294 293 296 295 294 296 294 295 296 294 296 297 297 294 294 294 294 293 293 293 292 292 292 292 292 293 293 294 295 294 294 295 295 296 296 296 297 297 297 298 298 298 299 300 301 301 303 303 304 304 303 303 302 301 300 298 297 297 297 297 296 297 297 298 298 299 299 300 301 301 301 303 303 303 303 303 304 304 305 304 304 304 303 302 303 303 304 305 305 304 302 302 302
294 293 294 292 294 295 296 295 295 295 294 294 295 294 296 298 295 293 293 293 292 292 292 292 291 291 292 292 292 292 293 293 293 293 294 294 295 295 295 295 296 296 297 297 298 299 299 299 300 301 302 302 302 303 302 301 301 301 299 298 297 295 296 296 295 295 295 295 295 296 297 298 298 299 299 300 300 301 301 301 301 301 302 303 302 301 301 301 301 302 302 301 302 303 302 302 301
294 293 291 291 295 293 293 294 293 293 294 294 294 293 296 296 292 292 291 291 290 291 291 291 291 291 291 291 291 292 292 293 292 292 292 293 293 294 294 294 295 295 296 296 296 297 298 299 300 300 301 301 301 300 300 300 299 299 299 298 297 296 294 294 294 293 293 293 292 293 294 295 295 295 296 297 297 297 298 298 299 299 299 300 300 299 299 299 299 299 300 300 300 300 300 300 301
295 295 294 294 293 294 294 294 293 294 293 292 293 293 294 298 293 291 290 291 290 290 290 291 291 291 291 291 291 292 291 292 292 292 292 292 292 292 293 293 294 294 294 294 295 295 296 297 299 299 300 300 300 300 300 300 299 298 298 298 297 295 295 293 292 291 291 291 291 292 292 293 294 293 294 294 294 294 295 295 295 295 296 296 297 296 295 296 297 298 298 298 298 298 298 299 299
295 295 295 296 296 295 295 294 293 293 293 293 293 290 292 294 293 293 290 290 290 290 290 290 290 290 291 290 291 291 291 291 291 291 291 292 292 292 293 293 293 293 292 293 294 294 296 297 298 298 299 299 299 300 301 302 301 300 298 296 293 292 290 289 289 288 289 290 290 292 292 293 293 293 293 294 294 294 294 294 294 293 293 293 293 293 293 293 293 294 295 296 296 297 298 297 296
293 295 297 296 296 295 294 292 292 289 288 292 291 289 288 295 294 292 290 290 289 289 290 290 290 290 290 291 291 291 291 290 291 291 291 291 292 292 292 292 292 292 292 293 293 293 294 295 296 297 297 297 298 298 299 298 297 296 295 293 292 290 288 289 290 290 290 291 292 291 291 292 293 293 293 293 293 294 294 294 294 293 293 293 293 293 292 292 293 293 294 294 293 294 296 294 294
293 294 293 296 295 293 293 293 293 293 293 293 289 292 288 289 295 291 291 290 289 289 289 289 290 290 290 290 291 290 291 291 291 290 290 291 291 291 290 291 291 291 292 292 292 293 293 294 294 295 295 295 296 297 296 296 295 294 293 292 291 290 289 288 289 290 291 291 291 291 291 291 292 292 292 293 293 293 293 293 293 293 292 292 292 292 292 292 293 293 293 293 293 292 292 291 291
295 291 294 294 295 295 294 293 292 292 290 289 291 292 287 288 293 288 290 289 287 289 289 289 290 290 290 291 290 290 290 290 290 291 290 290 290 290 291 290 291 291 292 292 292 292 293 293 293 293 293 293 293 294 294 294 294 293 292 291 289 290 290 290 290 291 291 291 291 291 291 291 291 292 292 292 292 292 292 292 292 292 291 291 291 292 292 292 292 291 291 291 291 292 292 292 291
292 292 293 293 293 293 293 292 292 290 288 286 291 291 287 288 295 291 288 289 290 289 290 290 290 291 291 290 290 290 290 290 290 290 290 290 290 290 290 291 290 291 291 292 292 292 292 292 292 291 291 292 292 292 292 292 292 292 291 291 290 289 290 290 291 291 291 291 291 291 291 291 291 291 291 292 292 292 292 292 292 291 291 290 290 290 291 290 290 291 291 291 291 290 291 291 290
293 295 295 293 293 292 291 292 291 288 283 287 292 291 290 285 293 294 290 292 293 292 291 291 291 291 291 291 291 291 290 290 290 290 290 289 290 290 290 290 290 290 291 291 292 291 292 291 291 290 290 290 291 291 291 291 292 292 291 291 291 291 291 291 290 290 291 291 290 290 290 290 291 291 291 291 291 291 291 291 291 291 291 290 290 290 289 289 289 289 290 290 290 289 289 290 290
294 293 292 292 290 291 290 288 289 284 284 286 285 287 289 283 290 295 295 290 292 293 290 289 289 290 291 291 290 290 290 289 289 289 289 289 289 289 290 289 290 290 290 290 291 291 291 291 290 289 289 290 290 291 291 291 291 291 292 292 291 291 291 291 290 290 290 290 290 290 290 290 290 290 290 290 290 290 290 290 290 290 289 289 289 289 289 289 289 289 288 288 289 289 289 288 289
293 293 292 288 286 285 282 285 281 283 284 285 286 286 285 286 293 293 292 293 291 294 293 291 291 291 291 291 290 290 290 290 289 290 289 289 289 289 289 289 290 290 289 289 290 290 290 290 290 289 289 290 290 291 291 291 291 291 291 291 291 291 291 291 290 290 290 290 290 290 290 289 289 289 288 288 289 289 289 289 289 289 289 289 289 289 289 289 289 288 288 288 288 288 287 287 287
291 291 289 287 283 282 280 283 282 282 285 284 286 288 284 291 293 295 294 291 291 291 292 294 293 292 291 291 291 290 290 290 290 290 290 290 290 290 290 290 289 289 289 289 289 289 290 290 290 289 288 289 290 290 290 290 290 290 291 291 291 291 291 291 290 290 290 290 290 289 289 289 288 288 288 287 288 288 288 288 288 288 288 288 288 288 288 289 288 288 288 287 287 287 287 287 287
292 296 293 289 288 284 280 282 282 283 284 283 285 283 285 285 290 287 289 288 289 289 290 292 294 294 293 292 291 290 290 289 290 290 290 290 290 290 290 290 289 289 289 289 289 289 289 289 289 288 288 289 289 290 290 289 289 290 290 291 291 291 290 290 290 290 290 290 290 289 289 289 288 287 286 287 287 287 287 287 288 288 288 288 288 288 288 288 288 288 288 287 287 287 287 287 287
292 292 294 289 288 292 285 284 284 282 284 282 281 285 290 291 288 289 288 289 288 288 289 290 291 292 292 290 290 289 290 289 289 289 289 290 290 290 290 289 289 289 288 289 288 289 289 289 289 288 288 288 289 289 289 289 289 290 291 290 290 290 290 290 290 290 290 290 289 289 288 288 288 288 288 287 287 287 287 288 288 288 288 288 288 287 287 287 287 287 286 286 286 287 285 285 286
290 290 287 291 292 292 283 280 279 279 282 282 287 286 290 292 289 288 289 287 288 287 289 289 290 291 291 290 290 290 290 290 289 289 289 289 289 289 290 289 289 289 289 288 288 289 288 288 288 288 288 288 288 289 289 289 289 289 289 290 290 290 290 289 288 288 289 289 289 289 288 288 288 288 288 288 288 288 288 288 288 288 288 288 287 287 287 286 286 286 285 285 285 285 285 285 285
290 286 291 290 293 294 289 284 282 282 280 283 284 284 287 286 285 288 287 287 288 288 288 289 290 290 289 290 291 291 291 290 290 290 290 290 290 289 289 290 289 289 288 288 288 289 289 289 288 287 287 287 288 288 289 289 289 289 289 289 289 289 289 289 289 288 289 289 289 288 289 288 288 288 288 288 288 287 287 287 287 286 287 286 286 286 286 285 285 285 285 285 285 285 284 284 285
293 291 297 290 285 284 287 286 279 279 278 281 283 284 286 288 289 287 288 288 289 289 289 288 289 289 289 290 291 291 291 290 289 289 289 289 289 289 289 289 289 289 289 288 288 288 289 289 289 289 288 288 289 289 289 289 289 290 289 289 289 289 289 289 289 289 289 289 288 288 288 288 288 287 287 287 286 286 285 285 285 285 285 285 285 284 284 284 284 284 284 284 284 284 283 283 284
292 292 290 290 290 288 285 286 285 285 281 278 281 281 283 289 292 292 293 292 293 290 288 288 290 290 290 291 291 291 290 290 289 289 289 289 289 289 289 289 288 288 288 288 288 289 288 288 288 289 289 289 289 289 289 289 290 289 289 289 289 289 289 289 289 289 288 287 287 287 286 286 286 286 285 285 285 284 284 284 284 284 284 284 283 283 283 283 283 283 283 283 283 283 282 282 282
287 289 288 289 288 288 289 287 285 284 282 281 281 280 285 291 294 295 295 295 295 291 290 290 290 291 291 292 292 292 291 290 290 289 289 289 289 288 289 289 289 289 289 289 289 288 289 289 289 289 289 289 289 290 290 289 289 289 288 288 288 288 288 288 287 287 286 285 285 285 285 285 285 284 284 284 283 283 283 283 282 282 282 282 282 282 282 282 282 282 282 282 282 282 281 281 282
291 290 288 290 287 285 282 282 286 284 284 281 280 279 286 291 288 291 291 291 293 294 293 291 291 292 291 292 293 293 291 290 290 290 290 289 289 289 289 289 289 288 288 288 289 289 289 288 289 289 290 289 289 289 289 289 289 289 288 287 286 286 286 286 286 285 285 284 284 284 284 284 283 283 283 282 282 282 281 281 281 281 281 281 281 281 281 281 280 280 280 281 281 280 280 280 280
Wind_Speed
4 3 2 1 2 2 3 3 2 2 2 5 4 0 5 2 2 3 2 3 2 3 2 1 2 3 3 5 7 6 4 5 4 6 5 3 2 3 1 5 0 0 6 9 9 11 11 7 8 8 10 11 12 12 11 10 10 11 10 11 12 10 10 10 9 8 8 8 8 8 8 7 7 7 8 9 11 12 12 12 11 11 11 12 13 13 13 13 13 12 12 12 11 11 10 10 9
3 2 1 2 1 2 2 3 2 4 3 6 5 2 4 1 3 2 4 4 5 2 2 3 2 3 4 5 5 4 4 7 6 4 2 3 2 2 1 4 2 2 7 9 9 12 11 11 5 8 11 11 12 12 11 10 10 9 7 10 11 11 10 10 9 9 8 8 8 8 7 7 7 7 8 9 10 12 11 11 11 10 12 12 13 13 13 13 12 12 12 12 11 10 10 10 9
2 3 2 2 1 2 3 2 2 2 4 5 4 4 1 2 4 4 4 4 4 3 2 2 1 3 5 5 5 4 5 2 3 1 4 1 3 5 3 5 2 2 7 8 10 12 10 12 6 8 11 10 12 12 12 11 10 9 8 9 10 11 10 10 9 9 8 8 8 8 8 8 7 7 8 9 10 11 11 10 10 11 12 12 11 11 12 11 11 12 12 11 11 10 10 9 9
1 2 3 2 1 2 1 1 3 2 4 4 5 3 1 4 5 5 3 4 4 3 1 3 3 3 4 1 4 2 2 2 2 2 0 3 5 6 3 4 2 2 6 7 9 11 11 11 7 7 10 10 11 11 11 11 11 10 9 9 9 10 10 10 9 8 8 8 8 8 8 8 8 8 9 10 11 11 9 9 11 11 12 11 10 10 10 10 10 11 11 11 11 10 10 9 9
1 1 3 1 2 2 1 2 2 1 4 3 5 4 2 1 3 4 3 4 3 2 2 1 3 2 2 4 2 3 6 1 3 1 2 3 3 5 2 4 3 3 6 8 9 10 10 12 7 7 10 11 12 12 11 11 12 11 9 8 9 10 10 10 9 8 8 8 8 7 8 8 8 9 11 10 11 11 12 12 12 11 11 11 10 9 10 10 10 10 11 11 11 10 10 9 9
1 1 3 2 1 2 2 4 4 3 6 2 5 5 3 3 3 4 5 2 2 2 3 3 4 2 2 1 1 3 6 3 5 1 4 4 7 5 1 4 3 4 7 7 8 8 10 8 7 7 10 11 11 11 12 12 12 12 10 10 10 10 10 10 9 9 9 8 7 8 7 7 7 10 11 11 12 12 11 12 12 11 11 10 10 10 10 9 10 10 11 12 11 10 10 10 9
3 2 1 2 4 2 1 2 4 5 4 4 4 4 3 4 3 5 2 3 1 1 0 3 1 4 3 2 3 3 3 3 4 3 5 8 7 3 2 2 2 4 6 6 7 7 10 9 6 6 8 10 10 11 12 12 12 12 11 11 10 10 10 10 9 9 9 8 8 7 8 9 9 10 11 11 11 12 10 10 10 10 10 10 9 9 9 10 10 11 12 11 11 10 10 10 9
2 3 2 1 3 2 3 3 4 2 3 2 4 3 4 4 3 3 3 4 4 2 2 0 2 4 4 1 2 4 2 2 4 5 7 5 4 1 1 1 1 4 5 5 6 6 7 6 6 6 5 7 9 9 11 12 13 12 11 11 11 10 10 10 9 9 7 8 8 8 9 10 11 11 11 11 11 11 10 9 9 10 9 9 9 9 10 10 10 11 11 11 10 10 10 10 9
4 2 1 2 3 1 3 2 3 2 1 2 1 3 4 3 3 3 1 1 2 1 4 2 2 5 4 3 1 4 3 6 4 3 5 6 4 1 0 1 1 2 3 3 4 5 9 6 4 5 4 6 6 9 11 12 13 12 12 10 11 10 10 9 9 8 7 6 7 6 8 10 12 12 11 11 11 11 10 10 9 9 9 9 9 9 9 10 10 11 10 11 10 10 10 10 10
2 3 2 2 0 3 2 3 3 3 2 3 3 2 2 1 1 4 3 1 3 4 2 2 2 4 4 3 2 4 5 9 4 2 8 7 5 2 1 2 3 1 2 3 3 4 6 6 4 4 4 4 4 7 10 9 11 12 12 11 11 11 8 8 7 6 6 5 5 5 7 9 9 12 12 12 11 10 10 10 10 9 9 9 9 10 10 10 10 10 10 10 10 10 10 10 10
1 3 1 2 1 3 3 4 2 4 2 1 1 1 2 1 3 2 1 4 1 3 2 1 4 3 3 1 3 2 1 5 9 8 8 7 4 3 2 3 3 2 1 2 2 2 5 7 4 2 3 3 3 3 6 7 10 11 11 10 10 9 9 8 5 5 6 5 3 6 7 10 12 12 12 11 11 11 10 10 10 10 9 9 10 10 10 11 11 10 10 10 10 10 10 11 10
1 2 2 1 2 1 2 3 3 3 4 2 6 3 2 1 2 1 2 3 1 2 0 3 4 3 3 1 4 4 7 12 9 7 8 5 4 4 3 2 3 3 2 1 3 3 4 5 6 5 2 2 2 2 3 7 8 9 9 9 9 9 9 8 6 6 4 3 3 4 3 4 9 11 10 11 10 10 10 9 10 10 10 10 10 10 11 11 10 10 9 9 10 10 11 11 11
3 2 2 2 2 1 3 2 4 1 4 4 4 3 0 2 2 3 2 4 2 3 3 1 1 2 3 2 4 2 6 9 9 7 6 5 3 2 3 3 4 3 2 1 3 3 4 4 6 8 8 2 2 2 3 7 7 9 9 8 8 8 9 8 6 7 6 4 4 4 5 6 6 7 7 7 10 9 10 9 10 11 10 10 10 11 11 10 9 9 9 9 9 9 10 11 11
1 1 2 1 1 1 2 1 2 5 4 5 3 4 1 2 2 3 2 4 2 3 3 2 2 1 5 3 4 1 6 10 12 8 4 4 2 2 3 2 3 3 2 0 2 3 3 4 5 7 8 8 9 6 4 6 8 8 9 8 8 8 8 8 7 7 6 6 6 6 6 6 5 5 6 8 9 9 10 9 10 11 11 10 10 11 11 9 9 8 8 8 8 8 9 9 10
1 1 3 3 2 2 1 3 4 6 5 4 2 4 2 2 1 2 2 4 2 3 1 3 3 4 3 4 2 5 9 13 11 8 3 3 3 3 3 2 3 2 3 1 1 2 3 3 5 5 7 9 11 10 9 8 6 9 9 8 8 8 8 8 7 7 6 6 6 6 7 8 6 3 3 5 10 10 10 9 9 9 11 10 10 11 10 9 9 8 7 7 7 7 8 9 9
2 2 1 2 2 2 3 2 1 3 5 2 3 3 3 3 2 3 1 3 5 1 2 0 3 4 5 4 5 9 11 11 9 5 2 3 3 3 3 3 2 3 2 2 1 2 3 4 4 5 6 8 9 9 9 9 7 8 9 8 8 8 8 8 8 7 6 6 5 6 8 8 8 6 5 3 8 10 10 10 9 8 9 10 11 11 9 8 8 8 7 7 7 7 7 7 7
0 3 2 1 3 3 4 3 5 3 6 3 2 1 3 2 2 3 1 3 6 2 2 6 3 3 4 5 6 6 8 8 7 3 5 5 3 2 2 3 3 2 2 1 1 3 3 4 4 4 6 7 8 9 8 9 7 6 9 10 9 9 8 7 7 7 8 6 6 6 6 5 6 5 7 6 5 8 10 11 10 9 9 9 10 10 8 8 8 8 7 7 6 6 7 7 6
3 0 1 2 2 2 5 3 4 3 0 3 0 1 2 2 2 1 3 6 7 7 7 2 2 4 8 5 6 6 7 10 9 9 8 6 5 4 4 5 4 4 3 3 2 1 3 4 5 6 5 7 8 7 7 6 6 6 7 7 8 7 8 7 7 7 6 5 5 5 4 4 4 4 5 7 4 5 9 12 11 8 8 9 10 9 9 8 8 8 8 8 7 6 4 1 3
2 2 1 1 2 3 2 1 2 1 1 2 1 2 2 2 4 3 6 4 1 7 3 1 6 9 6 9 9 9 9 11 11 11 11 10 7 7 6 5 5 5 5 5 4 5 3 3 5 6 7 7 7 8 6 7 8 8 9 6 6 6 6 6 8 7 6 5 4 4 4 4 4 3 2 4 5 5 6 6 9 9 9 8 10 10 8 8 8 8 8 9 7 7 2 2 2
2 2 1 2 2 2 3 2 2 4 2 3 2 2 2 2 2 2 5 11 7 3 4 2 2 3 7 6 8 8 8 9 11 11 11 10 8 7 7 7 6 6 6 5 6 4 4 4 4 6 7 7 7 7 7 7 7 8 8 6 4 7 7 6 6 7 6 6 5 3 2 3 3 4 8 8 7 4 4 6 6 7 8 8 10 8 9 7 7 8 8 9 7 1 4 3 3
2 2 1 3 3 3 4 6 4 2 2 3 2 2 4 3 2 3 3 8 1 2 5 6 6 6 5 6 7 7 8 10 11 11 11 10 9 6 6 6 6 7 6 7 4 5 5 5 4 5 6 7 7 6 6 6 7 7 8 7 5 4 5 6 6 6 7 8 7 6 6 4 5 4 4 5 6 6 6 4 4 5 4 5 9 2 4 5 5 3 4 4 2 2 5 4 3
3 3 3 5 3 3 4 3 1 2 1 3 2 5 2 3 2 4 4 5 4 5 7 6 5 5 6 7 7 7 10 11 11 11 11 10 10 9 8 7 6 6 6 5 7 7 6 6 5 4 6 7 7 7 6 5 6 6 6 7 8 6 4 5 5 5 5 5 7 7 6 6 6 6 6 6 6 6 7 7 7 6 5 5 6 3 3 4 4 3 1 1 2 3 4 4 2
2 3 1 1 1 4 2 2 2 4 3 4 5 1 2 3 2 1 4 3 5 6 5 6 6 4 3 4 6 9 10 11 11 11 10 10 10 10 9 8 8 7 7 7 7 6 7 7 4 4 5 6 8 7 6 5 6 6 6 5 6 5 5 4 4 4 5 7 7 6 7 7 6 6 6 7 6 6 7 6 6 5 5 5 6 4 3 3 3 2 1 1 2 1 1 1 1
2 1 3 3 3 5 2 3 3 5 4 5 1 0 5 3 5 2 3 5 6 6 6 6 6 5 4 7 9 9 9 9 8 8 7 7 8 9 9 9 8 7 7 9 8 8 7 8 5 3 4 6 6 7 7 6 6 6 4 3 5 5 5 5 5 4 4 3 4 4 6 7 7 6 7 7 7 7 6 4 4 4 6 6 5 4 4 4 3 2 2 1 2 2 1 1 1
2 2 2 1 2 6 3 3 4 5 8 5 3 5 5 3 2 4 3 4 5 5 4 5 5 7 9 10 11 10 10 10 10 8 7 6 7 7 8 7 8 7 8 10 9 8 9 8 6 3 4 6 5 5 7 6 6 5 5 4 0 4 4 4 5 5 5 4 5 5 6 6 6 6 7 8 7 6 6 5 5 6 8 7 5 5 4 4 3 2 2 2 1 0 1 2 1
1 1 0 1 4 3 4 5 8 7 3 2 4 7 1 2 1 4 4 5 4 4 5 5 6 10 10 10 10 9 9 10 9 9 9 7 7 9 10 9 9 9 9 9 9 8 9 8 4 0 3 5 5 5 5 5 5 5 4 4 2 4 3 4 5 3 2 1 0 2 3 3 5 7 6 6 7 7 7 7 7 7 4 0 1 5 5 3 2 2 1 1 1 1 1 1 0
1 1 2 5 5 4 2 5 1 2 5 4 5 3 5 2 3 3 5 4 4 4 6 6 7 9 8 7 6 7 8 9 8 7 7 7 8 9 10 10 10 10 9 10 9 8 8 8 5 2 4 2 3 5 4 4 3 2 3 4 1 5 7 7 6 5 5 3 2 1 1 1 2 1 2 5 5 6 6 4 3 0 1 3 2 3 5 4 3 1 0 1 1 2 2 2 2
2 2 4 6 5 7 6 4 4 2 3 5 7 1 3 2 3 3 4 4 2 4 6 7 7 7 6 6 6 5 5 5 5 6 10 11 8 8 10 9 11 10 9 10 9 9 9 9 6 4 4 4 2 5 2 4 3 1 4 8 8 8 9 8 7 6 7 6 6 7 6 5 4 2 2 3 3 5 6 5 6 5 5 5 5 5 4 4 5 5 5 5 4 3 3 2 3
1 2 7 4 6 8 3 1 2 2 1 2 3 4 5 5 5 2 5 2 4 5 6 6 6 5 5 4 5 5 6 6 6 7 8 7 7 7 8 9 9 9 6 8 10 9 10 8 7 5 5 3 6 5 4 1 7 8 9 9 7 8 9 8 8 7 6 7 8 6 5 7 5 4 5 6 7 6 5 5 6 5 5 4 4 5 5 5 4 3 4 3 4 2 3 3 2
1 2 3 10 5 5 3 1 1 5 2 1 3 6 5 5 4 4 5 2 3 4 5 4 4 4 4 4 4 5 6 6 8 7 7 7 6 7 8 9 9 7 7 7 10 10 8 7 6 6 8 11 11 9 9 9 9 10 8 9 8 10 10 9 8 8 8 7 7 8 9 8 7 7 7 8 7 6 6 7 6 6 5 4 4 4 5 4 4 3 3 2 2 2 3 3 3
4 1 2 4 5 1 3 2 3 5 2 2 4 6 2 7 5 5 6 2 5 2 4 4 4 3 3 3 4 4 6 6 7 8 8 8 7 6 8 8 9 9 6 8 9 9 10 9 8 7 10 10 10 11 13 10 10 10 9 9 9 9 10 10 8 8 8 7 7 9 10 9 9 9 9 8 7 6 7 7 6 5 5 5 5 5 4 3 2 3 1 1 0 1 1 2 3
1 3 4 2 3 1 3 4 1 4 3 1 5 5 5 9 5 5 4 1 2 5 4 3 3 3 3 3 4 4 5 5 7 8 9 8 8 7 8 8 8 8 8 7 7 8 9 9 10 11 12 12 11 12 11 10 11 10 10 11 11 11 10 9 9 9 8 8 10 9 11 12 11 10 8 7 7 7 8 8 7 6 6 6 6 6 5 5 4 3 3 2 2 2 1 1 0
1 5 6 4 2 5 6 3 2 3 1 1 3 7 3 6 4 4 4 2 2 5 4 3 3 3 3 3 2 3 3 5 7 9 10 8 8 8 7 8 8 8 8 8 8 8 9 10 10 11 11 11 12 13 13 13 12 12 12 12 11 11 10 9 8 8 9 10 9 10 11 11 11 11 10 10 11 10 8 8 7 8 6 6 6 5 5 6 5 4 3 3 3 2 2 3 2
4 2 5 1 5 1 4 4 2 2 2 4 2 6 8 3 7 4 4 1 3 4 4 3 3 2 2 2 3 3 4 5 7 8 10 9 7 8 7 7 8 7 8 8 8 8 8 7 8 8 9 10 10 11 12 12 11 11 11 11 11 11 11 8 8 8 9 9 9 9 10 11 11 12 12 10 9 9 9 9 8 7 6 6 6 6 6 4 4 4 4 3 3 3 3 4 4
3 3 4 5 4 6 7 5 3 2 2 4 2 7 10 6 7 4 4 2 1 3 2 3 3 2 2 2 3 4 5 6 6 7 8 8 8 7 6 7 7 7 6 8 8 7 7 7 7 8 8 10 10 11 12 12 12 12 11 10 11 10 9 8 7 9 8 7 8 8 8 8 8 9 10 10 9 8 8 8 7 7 7 7 7 7 7 7 6 6 5 4 3 4 4 5 6
8 5 6 5 6 5 6 3 3 2 5 7 8 9 10 12 5 6 4 3 2 3 2 2 2 2 2 2 3 3 4 5 5 6 7 6 6 7 6 6 6 6 7 7 8 9 8 8 8 8 7 7 9 9 8 8 8 7 8 8 11 10 9 9 10 9 8 9 9 9 9 8 8 8 8 8 9 7 7 7 7 7 6 6 7 8 8 7 7 5 6 5 4 3 6 5 6
2 1 3 7 8 10 4 2 2 1 3 10 11 10 12 11 5 5 3 2 3 2 2 2 1 2 2 2 3 4 4 4 4 4 6 6 7 7 6 6 6 8 9 9 10 10 10 8 8 9 6 6 6 6 6 7 8 8 9 10 10 8 8 9 10 10 9 9 11 11 11 10 10 9 9 8 8 8 7 6 6 6 6 8 9 9 8 8 7 6 3 5 7 5 6 7 8
5 6 6 8 7 10 1 2 4 2 3 5 3 6 11 13 2 4 3 4 2 2 1 2 2 2 2 2 3 3 3 3 3 4 5 6 6 7 6 6 8 9 10 10 11 9 9 9 10 7 6 7 8 8 8 9 8 7 9 8 8 8 8 9 9 9 9 9 11 11 10 10 10 10 10 10 10 9 8 8 8 8 8 9 9 9 9 8 9 9 7 5 6 7 6 9 9
4 7 5 6 9 5 8 6 2 2 4 8 2 7 10 5 4 4 3 3 3 2 1 2 1 1 2 2 3 3 3 3 4 5 5 5 6 7 6 6 7 8 8 9 8 8 9 9 8 7 7 8 8 8 9 9 9 9 10 8 9 10 10 9 9 9 9 10 11 11 10 10 10 11 11 11 9 10 9 9 8 8 9 8 8 9 9 10 9 10 11 9 6 6 6 8 10
6 5 6 10 1 1 5 4 2 3 4 4 3 8 11 3 4 4 3 2 4 3 3 3 1 2 2 2 2 2 3 3 4 4 5 6 6 6 6 7 7 7 7 8 7 8 7 7 7 8 8 9 9 9 11 12 13 13 12 11 11 10 9 9 11 10 11 12 12 11 11 11 11 11 11 10 9 10 10 9 9 9 9 9 9 9 11 11 11 10 10 11 9 7 7 7 9
7 9 10 10 4 7 9 3 0 2 3 1 5 9 11 6 4 4 4 3 4 3 4 3 3 2 2 2 2 1 3 3 4 5 5 5 6 7 7 7 6 8 8 8 8 7 5 7 7 8 8 8 8 9 10 11 11 13 11 11 11 11 10 9 10 11 10 11 11 11 11 11 11 11 11 11 10 11 11 10 10 10 10 10 9 10 11 11 10 10 10 10 11 8 7 7 7
6 10 12 10 7 10 8 1 5 5 5 4 2 5 4 3 3 3 5 4 4 3 4 4 3 3 3 4 3 3 2 2 3 4 4 5 6 6 7 8 8 7 8 7 7 7 7 6 7 8 7 7 6 6 5 4 6 8 8 9 9 9 10 9 9 9 9 9 10 9 11 11 11 11 11 11 11 10 11 11 11 10 11 10 10 10 9 10 11 11 10 9 10 10 7 7 7
5 4 10 13 11 6 3 4 4 4 5 2 2 5 3 3 3 5 5 5 5 4 4 4 4 4 4 4 4 4 4 4 4 4 4 5 5 6 7 7 7 8 7 6 6 7 7 7 8 7 7 6 6 6 6 6 8 8 10 11 10 10 11 8 7 7 8 8 8 10 10 10 11 11 11 11 11 11 10 10 10 10 10 9 9 9 10 10 9 9 8 9 9 8 8 7 8
7 3 2 4 7 8 9 7 8 4 3 1 3 3 6 7 4 4 5 5 5 5 5 6 5 6 5 5 4 4 4 3 4 4 4 4 4 5 7 6 6 6 5 6 6 7 8 8 8 8 7 8 7 6 8 7 9 9 11 11 10 10 11 10 9 8 8 7 9 10 9 9 10 10 10 11 11 10 10 10 10 10 10 9 9 9 9 9 8 8 9 9 8 8 9 8 7
1 1 2 4 5 5 6 6 5 1 2 6 6 4 3 6 3 3 3 4 5 7 8 8 8 7 7 6 5 4 3 3 3 4 4 4 4 4 5 6 6 6 5 6 6 6 7 8 9 9 10 9 8 9 9 9 9 9 10 10 12 9 10 9 8 7 8 8 10 9 9 9 9 10 10 10 10 10 9 9 10 10 10 10 9 9 8 9 10 9 9 9 9 8 7 7 6
2 5 7 6 6 5 4 3 3 2 4 7 7 8 5 8 5 3 3 5 7 8 10 10 10 10 9 8 6 5 4 3 3 3 3 4 4 4 5 6 7 5 5 5 6 6 7 7 9 11 10 8 8 9 9 10 10 9 11 10 14 10 8 8 8 8 8 7 10 9 9 9 8 9 10 10 10 10 10 10 9 10 9 8 8 8 9 9 9 9 9 8 9 9 7 7 7
8 6 7 6 5 4 3 1 2 1 5 9 1 9 7 5 4 7 6 4 3 9 7 7 9 9 9 8 8 7 6 5 4 4 3 4 3 4 4 7 7 6 5 6 6 7 7 8 9 12 10 8 8 8 9 10 9 9 10 11 12 12 10 9 9 9 8 8 9 9 9 9 9 9 9 10 11 10 11 11 10 10 10 9 9 10 10 9 8 8 8 8 9 9 7 7 7
4 3 5 6 3 3 2 1 2 4 5 4 3 2 3 7 3 2 2 3 3 11 14 14 14 14 11 10 8 8 7 6 5 5 5 5 5 5 5 7 7 6 6 6 6 6 7 7 9 13 10 9 8 8 9 10 10 10 11 11 12 10 9 8 10 10 9 10 9 9 8 8 8 8 8 8 9 9 9 9 9 9 9 9 9 7 7 8 7 7 7 7 6 7 7 6 6
2 4 5 6 3 2 4 3 5 8 5 2 3 3 3 12 8 3 2 4 2 4 7 15 16 15 13 11 10 8 7 7 6 6 6 6 6 6 6 7 6 6 6 6 6 6 7 8 9 13 11 9 9 9 10 10 10 10 10 10 10 9 10 10 9 9 8 8 8 8 8 8 7 8 8 8 8 9 8 8 8 8 7 7 7 8 7 8 7 6 6 6 5 5 5 5 5
5 8 7 5 4 4 5 3 2 3 1 1 3 2 5 3 6 2 4 5 2 1 1 8 15 16 15 12 10 8 7 7 7 6 6 6 6 6 6 6 6 6 6 6 6 6 6 7 8 12 10 8 8 9 10 11 10 9 9 9 9 8 9 8 8 8 8 7 7 8 8 7 7 7 7 7 6 6 6 6 6 6 6 5 5 5 5 5 6 5 5 6 6 5 5 5 4
11 1 6 3 2 2 5 4 5 1 1 2 2 2 3 5 2 3 3 2 1 1 2 1 6 10 11 9 8 8 8 8 7 6 6 6 6 6 6 6 6 6 7 6 5 6 7 8 9 11 11 9 9 9 9 10 9 8 8 7 7 7 8 8 7 7 7 8 7 7 7 6 6 6 5 4 4 4 4 4 4 4 5 5 5 5 6 5 6 6 5 6 5 5 6 5 5
2 1 3 1 4 1 4 2 2 0 1 3 3 4 1 3 2 1 1 1 1 1 3 4 7 7 8 8 10 10 9 9 8 7 7 6 6 6 5 5 6 6 7 6 7 6 7 7 9 9 10 9 8 8 8 8 8 7 8 9 8 8 7 7 7 6 6 6 6 6 6 5 5 4 3 3 3 3 3 4 4 4 5 5 5 5 5 5 6 5 5 5 5 3 5 6 5
6 5 6 4 4 2 4 2 3 1 0 8 4 4 4 1 2 3 2 1 3 2 5 7 9 9 9 9 10 10 9 9 8 8 7 7 6 5 5 6 6 6 6 6 7 6 8 8 9 10 9 8 8 8 8 8 8 8 8 8 8 8 8 8 7 7 6 5 5 5 5 4 4 4 3 3 3 4 4 5 6 6 6 6 6 6 6 6 6 5 5 5 4 4 4 5 4
9 5 6 3 1 3 1 4 2 1 6 4 4 8 7 6 6 5 4 4 6 6 8 8 9 10 12 12 11 10 9 9 8 7 7 8 7 7 6 6 6 7 7 7 7 6 6 6 8 10 9 9 8 7 7 7 8 8 8 7 7 7 7 7 6 6 5 5 4 4 4 4 5 4 3 3 4 5 5 5 5 5 5 6 6 6 6 6 6 5 5 5 4 4 5 4 4
2 0 2 5 3 4 2 0 5 3 5 5 5 6 7 9 6 5 7 10 11 11 9 9 11 13 15 12 12 10 9 8 8 9 8 7 7 7 7 7 6 6 7 7 7 6 6 5 6 8 9 8 8 6 6 6 6 5 5 6 6 6 5 5 5 5 5 5 6 5 5 4 4 4 4 4 4 3 4 4 4 5 5 5 5 5 5 5 6 5 5 5 5 6 6 6 6
2 1 3 3 3 1 6 3 1 0 5 0 3 6 6 9 8 12 12 13 12 11 10 14 17 17 14 14 13 13 12 10 10 10 9 8 8 9 9 9 9 9 8 7 8 6 8 7 6 6 7 7 7 7 7 7 6 6 6 5 5 5 5 5 4 5 5 6 5 5 4 4 4 3 3 3 3 3 4 4 5 5 6 6 6 6 6 6 6 5 6 6 6 7 7 7 7
4 5 5 2 0 2 2 1 2 2 3 4 7 7 2 6 2 8 8 9 11 15 15 12 13 14 16 15 15 13 11 11 11 10 10 11 10 8 8 8 7 7 7 7 7 8 8 6 7 7 9 8 7 6 6 6 5 6 6 6 6 5 6 6 6 6 6 5 4 4 3 3 2 3 3 3 4 4 5 5 6 6 6 6 6 6 6 6 6 6 6 7 7 7 7 7 7
7 12 10 11 7 5 5 6 3 1 3 4 2 9 1 2 3 4 5 4 2 7 7 10 13 15 16 14 12 11 11 11 11 11 10 10 10 9 8 7 6 7 8 9 8 7 7 7 7 7 7 6 6 6 5 6 5 5 6 6 6 5 5 5 6 6 5 4 3 3 3 3 3 3 3 3 4 3 4 5 5 5 5 5 5 6 6 5 6 7 7 5 6 7 8 8 7
Wind_Direction
323 332 302 313 258 283 258 354 215 76 233 71 102 191 74 296 324 269 137 192 171 73 6 303 271 212 279 0 332 319 309 298 33 332 53 62 93 77 224 180 142 147 170 163 170 164 176 172 171 160 164 160 154 158 152 147 139 142 146 138 139 143 142 137 136 134 133 133 124 121 122 118 115 116 111 108 114 110 101 100 96 93 85 80 73 67 63 59 54 51 51 48 43 37 34 32 31
321 308 286 252 278 268 157 312 82 138 113 116 77 304 73 56 233 40 54 33 27 55 349 300 275 261 277 279 284 275 232 239 321 5 348 88 109 79 163 196 176 182 169 162 168 171 174 164 173 160 163 160 158 154 149 148 141 144 142 135 142 145 145 140 138 141 140 137 134 128 124 127 122 122 122 113 113 107 100 96 98 92 84 75 69 67 63 59 56 52 47 43 41 34 29 25 22
347 323 245 212 213 0 113 262 188 128 138 102 100 70 174 159 58 54 29 8 3 344 309 281 278 242 243 218 238 289 80 285 278 228 288 78 222 70 31 196 197 234 170 164 169 174 176 167 169 170 160 159 159 159 152 149 145 142 135 137 143 145 141 139 143 143 141 145 141 140 139 138 134 131 128 116 111 106 105 101 88 83 77 75 74 73 67 59 55 53 48 42 36 32 29 23 19
263 8 325 301 149 236 268 84 92 177 103 82 119 105 339 52 67 24 17 3 328 316 255 185 257 86 292 270 18 273 334 92 19 344 116 43 12 336 350 189 194 217 175 170 169 173 182 137 171 168 159 160 163 159 156 153 146 140 140 141 147 142 143 143 147 149 145 151 159 154 153 146 140 140 112 110 109 108 106 98 89 81 82 82 73 64 58 53 48 48 46 41 37 32 27 25 21
246 49 332 249 261 93 357 43 73 245 126 165 99 113 99 24 29 357 16 343 348 276 256 358 247 155 337 300 319 309 57 43 102 320 344 86 29 349 327 162 201 189 175 177 171 172 175 133 162 172 159 161 167 162 158 158 152 145 143 146 148 148 149 148 153 156 152 163 167 163 158 153 150 131 121 120 111 103 96 92 88 85 82 75 69 59 55 55 54 52 48 43 36 30 27 25 22
162 287 33 305 351 35 193 166 145 85 56 43 124 90 65 43 355 348 322 8 46 284 319 285 338 3 218 112 295 325 16 332 357 13 316 68 351 341 141 162 202 176 168 173 176 176 175 135 166 170 165 168 170 167 162 160 157 149 148 153 156 153 154 154 163 158 166 170 166 168 163 155 141 132 125 123 115 101 94 90 86 82 75 71 63 60 61 55 52 48 46 42 34 30 28 26 24
2 259 51 99 117 248 9 84 106 110 80 332 65 94 41 37 0 319 45 179 117 177 157 341 322 253 223 57 229 251 24 349 297 24 331 327 340 348 150 169 189 170 162 170 179 178 180 145 171 174 165 170 169 170 167 163 160 153 155 158 158 158 160 158 165 169 172 176 166 171 158 151 141 135 131 133 120 106 98 95 89 84 80 71 64 60 58 51 51 52 51 45 36 30 28 26 24
139 278 8 248 63 298 97 90 97 343 104 326 7 351 41 11 342 301 36 316 59 316 85 172 268 294 58 228 360 95 81 64 324 331 335 336 340 319 191 350 173 154 165 165 175 177 138 154 168 178 174 173 166 172 169 167 163 158 155 159 161 161 164 163 168 169 188 174 168 171 149 155 147 144 144 134 125 113 114 105 97 93 85 77 68 60 59 52 49 49 49 46 43 33 28 26 25
16 4 192 234 101 82 134 110 81 18 97 197 261 273 307 331 303 292 22 20 270 248 302 345 327 294 44 310 316 61 79 357 333 27 19 8 14 28 36 342 359 120 162 165 171 174 186 154 185 181 184 176 167 174 177 171 166 161 161 163 161 164 169 170 171 169 192 185 173 173 158 156 157 150 149 137 127 127 122 115 108 101 93 82 69 64 63 56 48 49 48 47 44 38 32 29 27
96 327 104 42 12 123 131 130 189 86 33 52 328 358 341 213 235 257 314 173 22 309 29 349 303 330 336 8 125 87 18 351 338 92 31 20 15 16 8 360 354 33 174 182 170 182 194 132 194 198 188 183 176 184 185 180 172 167 165 167 163 164 169 173 169 169 187 196 168 185 169 154 154 154 150 139 133 132 130 123 116 107 94 80 68 67 63 56 50 52 48 44 42 39 36 30 29
60 61 352 204 149 139 199 141 113 134 100 52 137 24 3 252 254 251 268 322 82 320 352 176 182 329 289 62 24 94 235 6 20 10 3 23 16 21 34 16 360 355 5 215 194 186 191 203 162 217 200 202 187 189 186 184 179 175 169 167 165 160 163 172 168 166 178 190 182 177 179 159 167 158 153 145 139 137 135 126 119 111 96 83 78 71 63 60 64 62 52 46 43 38 37 34 30
118 357 270 166 154 294 119 126 117 92 96 157 97 62 57 304 236 276 354 329 33 253 116 189 15 320 274 278 128 100 53 29 14 356 350 4 38 26 11 18 13 21 357 227 220 211 212 203 195 173 244 223 205 196 179 178 178 177 175 170 165 160 163 171 161 162 163 144 135 172 140 155 170 164 163 149 141 139 135 132 120 112 100 91 85 77 71 66 69 63 56 52 47 45 38 35 33
59 265 68 144 71 279 74 194 116 67 144 109 65 60 354 269 19 7 341 288 281 292 95 355 23 260 284 300 64 170 35 21 3 358 353 5 28 42 36 24 23 26 28 253 207 209 211 219 212 209 196 197 206 223 179 186 185 176 183 174 166 162 164 170 164 155 155 127 122 125 144 156 182 160 160 162 141 140 137 125 122 115 104 97 92 87 80 76 74 69 64 54 53 51 40 37 36
357 345 330 97 309 127 176 62 105 185 144 111 64 327 221 268 71 331 279 329 21 329 43 26 230 265 263 275 156 78 28 8 343 355 348 20 38 57 65 52 38 36 31 276 208 210 218 219 222 216 207 207 210 188 182 196 186 184 186 177 172 165 169 169 165 162 159 152 123 122 129 117 162 151 179 167 147 135 127 127 127 119 114 103 97 94 89 89 90 82 70 63 60 53 44 40 39
81 248 79 111 116 216 122 211 162 201 121 121 67 324 331 178 305 235 282 330 344 29 19 211 322 269 85 319 63 10 340 340 329 336 359 48 56 66 67 90 119 85 39 356 245 224 226 224 224 227 217 216 217 217 216 190 199 191 190 186 173 170 168 170 166 165 159 145 127 125 127 111 101 131 190 210 142 136 136 125 118 119 116 107 101 95 97 105 104 94 84 80 76 61 53 45 44
84 187 82 156 128 238 142 208 37 225 132 142 102 261 257 146 227 285 64 316 304 87 329 289 185 286 353 339 15 336 331 326 318 315 4 55 66 90 81 57 38 84 58 2 290 240 235 230 226 224 223 219 217 221 220 219 181 190 183 192 173 173 174 168 168 164 150 141 128 129 132 134 133 139 151 232 145 141 134 127 128 126 116 107 105 104 109 113 115 107 99 99 89 79 68 60 47
233 266 169 106 158 237 131 207 174 168 99 162 134 339 342 327 129 259 14 273 273 331 299 268 267 46 22 37 351 346 341 335 341 29 46 39 9 65 84 42 4 104 50 82 337 318 295 254 241 236 230 224 223 223 226 225 189 197 183 180 184 173 174 169 166 155 148 133 144 131 151 208 183 152 155 185 156 152 136 137 143 134 124 122 116 116 123 124 124 118 111 110 104 100 98 94 67
261 49 95 150 66 203 150 192 185 61 116 120 23 40 301 300 323 19 228 225 233 272 272 299 131 93 70 73 27 16 11 17 18 43 41 37 19 19 16 16 4 4 357 0 55 357 287 275 250 240 232 229 227 223 226 220 215 173 212 183 187 194 177 185 174 186 171 171 148 152 202 229 230 195 165 151 184 146 154 145 134 144 137 139 126 133 143 138 133 124 131 126 124 117 178 153 105
15 129 285 50 190 54 197 79 143 185 56 13 288 175 260 332 308 14 312 298 242 310 184 345 110 120 81 44 24 21 19 28 30 41 45 38 26 19 9 355 357 354 356 348 333 337 321 272 252 241 234 227 225 228 226 226 227 220 222 216 206 177 184 193 214 199 207 197 192 202 212 225 243 224 198 145 170 179 141 145 146 155 145 145 136 146 150 138 137 146 146 140 130 160 178 29 42
61 275 94 90 161 81 246 199 149 241 354 292 305 129 232 324 263 21 289 306 290 301 343 138 129 55 23 26 20 15 26 34 35 36 41 37 27 15 7 357 350 353 340 335 318 319 318 288 255 242 236 232 223 221 222 227 224 229 227 212 227 200 194 191 224 214 203 186 184 194 206 243 242 246 98 123 131 144 149 148 154 155 149 147 146 159 140 148 161 157 146 140 162 124 31 13 11
105 248 108 114 145 233 179 207 233 200 208 280 285 151 250 158 205 283 308 299 302 79 43 354 351 17 26 27 17 15 27 33 32 33 32 29 24 20 7 353 342 333 333 317 313 326 328 310 282 240 233 232 227 223 224 229 229 227 225 224 205 224 198 192 206 225 213 200 188 201 202 188 229 230 197 177 197 176 166 154 173 181 170 161 185 226 186 150 195 175 154 183 45 70 32 27 0
174 12 45 113 125 247 115 190 125 186 69 245 199 276 3 116 208 228 250 287 328 3 342 13 45 50 37 15 9 22 30 31 29 29 27 23 16 9 360 353 344 337 340 329 337 323 333 324 296 273 226 223 224 225 217 214 218 232 223 224 226 221 214 240 218 201 209 208 217 196 199 201 213 225 212 210 203 201 197 197 204 223 210 208 201 235 229 197 227 200 178 131 98 31 35 31 9
256 131 200 193 150 285 92 185 190 195 191 214 270 320 321 221 269 227 233 273 31 36 37 55 67 63 57 37 27 33 29 29 26 22 17 17 12 10 3 355 352 348 341 340 333 332 330 328 311 274 234 216 217 222 225 221 221 216 233 219 227 226 225 210 203 219 224 223 230 214 214 211 212 222 218 214 214 212 217 222 220 216 219 228 227 238 212 216 225 249 360 87 100 112 68 94 81
284 350 138 181 200 238 134 246 128 212 223 258 84 55 271 258 275 151 190 52 62 57 54 68 68 67 56 49 40 41 36 29 29 27 21 18 10 5 1 359 356 347 343 348 343 337 335 330 321 262 224 206 206 214 216 214 220 225 225 241 213 223 232 230 216 206 201 217 243 247 227 226 211 218 225 222 217 221 232 216 205 199 217 235 231 238 220 220 214 229 96 95 183 184 118 63 65
234 256 153 115 214 241 256 248 231 235 247 269 270 261 256 217 282 176 85 71 88 79 67 63 63 59 48 42 33 30 28 24 22 19 21 15 10 9 17 10 0 357 354 348 342 341 342 337 315 257 208 196 195 203 215 212 215 218 221 224 208 355 273 254 263 237 210 201 208 224 253 241 217 208 218 227 226 224 224 208 201 225 228 240 239 239 233 224 221 213 139 155 255 206 163 157 147
230 35 149 179 247 263 256 263 251 247 264 184 230 251 134 206 168 96 60 76 104 100 70 51 58 52 44 39 33 27 25 23 14 13 7 3 7 12 17 11 359 3 353 340 341 344 345 345 337 256 186 180 175 195 202 204 212 214 225 243 199 89 40 41 349 318 330 34 123 245 206 233 219 210 208 228 230 223 223 221 220 228 241 282 243 248 252 257 228 156 102 163 221 242 264 86 358
291 71 268 277 297 311 254 241 226 139 254 169 244 249 132 129 251 137 84 96 128 102 71 57 61 63 53 50 38 32 30 22 13 1 11 13 16 17 10 5 4 354 346 348 344 341 339 351 20 45 147 103 186 170 192 190 180 186 220 260 43 82 64 54 42 38 18 351 345 258 284 12 4 358 270 234 232 245 251 232 219 100 25 32 351 329 16 7 22 321 236 281 303 311 355 32 342
78 306 261 244 250 247 242 246 274 238 224 203 233 227 121 172 235 69 57 73 174 102 74 62 60 61 61 55 51 41 39 26 17 19 20 18 15 7 9 4 353 349 354 347 341 337 342 356 18 75 124 151 163 146 147 123 132 96 70 54 51 57 58 51 42 40 48 38 35 34 41 34 20 29 51 52 44 39 41 45 42 42 35 32 29 33 30 28 13 26 29 14 6 359 8 13 360
99 287 297 296 282 279 86 312 84 283 128 201 211 236 175 177 144 59 49 107 127 99 78 62 61 61 58 53 54 45 33 27 27 30 22 18 10 10 9 8 357 349 350 342 341 346 352 348 351 26 71 56 78 92 146 33 63 60 59 64 57 56 59 55 48 47 44 46 48 39 51 58 50 51 59 68 75 73 62 62 66 61 61 55 43 45 50 43 35 25 37 5 14 348 347 356 342
222 148 333 297 277 262 84 160 224 298 102 54 218 276 132 129 95 20 1 201 178 87 65 58 57 55 49 49 55 54 37 34 35 30 21 15 11 13 12 7 5 358 346 347 351 1 354 10 10 21 46 56 57 61 59 60 65 68 66 66 58 63 68 61 53 50 46 46 51 47 53 54 53 61 73 73 75 75 76 74 68 64 64 72 78 76 72 67 69 60 42 30 27 11 1 347 338
276 49 237 284 306 211 142 26 329 292 72 232 233 267 165 147 131 6 357 311 228 116 77 61 55 50 50 45 50 55 50 41 36 31 24 19 14 17 16 12 7 4 2 359 3 1 8 10 18 39 50 64 66 68 64 57 62 66 63 63 55 52 56 57 50 49 42 39 40 50 56 59 63 70 72 77 66 72 75 71 65 65 67 67 67 64 76 90 100 83 82 81 135 51 42 25 352
39 272 231 148 252 160 141 88 13 255 106 242 233 252 285 150 122 12 10 27 141 111 99 80 62 58 52 51 55 56 53 46 39 32 21 16 15 14 16 13 11 11 10 2 6 16 19 14 40 55 59 67 58 64 66 61 60 57 58 60 53 47 51 54 48 44 37 42 54 52 51 63 65 64 63 67 70 64 73 71 66 62 71 77 77 78 80 72 68 78 60 31 32 50 21 72 227
125 228 268 250 208 284 298 103 354 343 87 77 274 284 313 163 113 44 27 86 131 121 115 96 84 69 61 60 55 47 53 43 34 26 17 8 15 13 14 13 17 15 14 12 14 27 32 21 18 46 55 64 68 70 69 66 66 63 62 62 61 58 54 47 40 44 46 40 36 39 31 42 45 58 58 64 74 69 66 63 57 56 53 66 69 68 64 63 66 65 44 16 23 43 11 360 340
218 142 256 301 251 258 259 124 119 26 278 209 141 248 254 97 155 109 77 29 147 123 119 116 101 82 76 68 57 53 45 33 24 12 6 8 10 13 18 20 21 20 21 21 21 35 43 35 34 34 50 53 62 70 69 69 69 70 67 66 64 63 56 51 46 45 45 43 44 39 35 37 39 38 42 47 57 56 54 56 55 52 60 69 66 62 63 55 51 49 58 47 23 12 21 10 353
281 165 221 237 211 237 280 289 90 279 142 251 192 245 265 262 138 105 71 61 149 106 106 103 96 93 78 69 64 56 51 41 24 9 2 1 6 11 18 20 24 28 29 25 27 33 45 44 46 40 50 60 74 79 80 77 75 74 74 70 64 59 56 47 44 50 40 37 38 38 36 43 31 37 46 52 58 53 55 50 51 44 49 54 53 46 38 33 33 29 30 42 63 39 21 17 354
283 265 271 281 261 209 232 240 79 296 259 253 244 255 263 272 163 114 100 73 110 105 107 98 97 83 76 73 64 60 51 53 25 13 4 8 8 9 17 20 31 34 33 28 35 36 42 51 62 58 43 65 81 84 87 83 74 64 72 69 62 52 53 49 44 43 39 34 27 34 33 36 33 37 41 54 62 58 58 52 49 40 43 51 52 49 42 35 23 27 36 19 26 81 37 9 348
63 201 236 254 257 262 261 256 116 106 277 253 252 259 263 260 269 88 118 122 120 129 122 99 76 81 73 66 71 61 57 43 16 16 19 13 17 16 18 23 34 46 39 37 42 38 37 42 57 55 44 46 74 84 79 84 86 84 69 66 73 61 59 58 54 46 45 41 35 36 34 31 27 30 32 43 58 64 62 58 55 53 55 57 57 54 47 39 28 17 29 41 22 31 30 8 354
246 261 249 258 217 261 259 294 106 112 275 276 190 260 256 260 179 82 124 176 132 91 111 107 88 77 76 77 77 65 64 73 49 47 33 30 26 25 31 35 32 46 36 41 44 40 42 46 52 53 51 61 62 70 78 71 64 71 86 77 80 67 63 61 61 51 48 45 43 41 41 37 36 35 31 35 42 47 53 53 49 46 48 56 59 58 54 48 39 33 18 38 47 34 34 11 8
204 245 258 259 256 269 271 257 135 233 187 266 301 274 271 242 112 102 85 100 84 70 34 70 77 112 113 101 94 96 101 87 76 63 47 44 37 35 44 43 47 50 49 49 46 52 49 53 51 55 57 61 58 65 76 80 80 79 85 90 87 84 70 72 73 68 61 59 52 48 46 43 42 42 37 35 36 36 44 49 48 47 47 49 56 52 47 44 37 34 31 24 18 41 36 29 18
231 214 233 245 283 303 275 126 124 140 246 319 4 296 281 181 103 99 78 86 100 88 94 91 76 113 118 102 93 118 116 113 87 61 57 47 44 44 43 43 41 45 46 47 40 46 50 53 53 62 63 67 70 71 82 84 85 87 85 88 84 84 88 82 77 69 63 60 54 50 46 45 45 47 42 44 46 44 43 47 47 45 45 45 49 49 41 37 32 29 27 27 15 24 26 28 29
203 230 241 254 214 235 238 299 263 157 222 241 269 276 271 228 183 158 114 117 126 128 137 147 123 109 95 107 118 55 117 107 98 87 63 53 52 42 41 39 43 48 44 38 32 37 46 49 52 60 66 68 73 82 91 98 101 97 99 97 95 92 80 73 71 63 60 60 60 49 45 45 47 49 46 45 47 46 45 45 48 48 47 45 49 49 46 39 34 32 25 29 25 13 18 18 29
231 213 231 248 247 252 231 292 302 268 251 142 250 276 246 136 197 157 143 167 162 146 179 159 149 142 159 159 138 130 101 54 89 82 70 63 63 61 52 49 51 53 49 38 39 43 51 57 60 65 68 66 67 58 57 90 101 110 115 107 95 83 73 62 60 65 63 62 64 62 55 51 51 50 48 47 45 46 46 44 45 47 47 45 46 50 48 45 36 32 29 29 27 19 6 24 15
250 258 199 225 237 243 214 195 178 245 259 95 269 255 279 149 178 165 160 172 157 155 189 168 166 166 175 161 161 152 138 126 100 99 96 94 82 81 67 59 58 63 53 50 56 57 61 64 62 64 69 68 59 68 71 80 79 79 82 84 87 91 96 80 78 76 79 76 75 70 65 56 52 54 50 48 46 46 47 44 45 47 47 48 46 48 46 43 39 32 25 31 30 23 20 34 24
245 82 178 188 202 206 211 197 215 272 21 192 187 249 269 289 277 107 146 168 168 172 183 183 183 174 177 168 164 152 142 132 121 107 100 89 84 86 85 74 70 68 65 67 66 66 67 67 72 73 73 70 63 71 70 72 87 85 87 88 87 87 88 97 89 82 78 81 79 74 72 64 57 55 55 50 48 45 45 46 44 46 47 44 44 46 45 39 38 35 32 30 32 33 29 28 24
275 64 185 167 193 191 163 195 212 290 330 267 181 134 255 243 233 102 165 195 193 198 186 189 181 179 175 174 166 154 144 130 132 131 119 112 102 90 92 85 78 73 63 66 69 73 77 77 78 80 77 74 67 67 76 74 84 90 93 97 93 87 92 93 93 88 84 81 80 74 72 71 66 58 54 52 48 47 46 46 45 46 45 42 40 41 40 38 37 34 30 30 26 28 31 25 24
112 123 94 88 85 84 162 198 185 154 233 249 221 169 247 267 199 187 138 257 227 190 187 187 181 177 177 175 164 160 154 154 144 132 130 116 104 94 88 95 85 74 71 75 76 80 79 80 80 79 73 70 69 72 80 82 82 90 90 91 97 98 97 95 91 89 85 79 76 71 68 64 60 59 55 50 48 45 44 44 45 44 44 42 40 37 34 34 30 30 30 30 26 25 23 22 23
126 171 110 98 86 104 111 80 157 169 239 239 202 177 225 282 181 223 178 213 195 160 169 170 175 177 182 175 169 168 171 164 164 154 138 118 105 109 107 100 96 91 80 82 76 76 75 78 83 80 76 78 76 80 82 79 79 83 88 89 92 97 96 97 94 85 82 77 74 70 66 63 59 56 54 50 44 40 42 39 38 38 37 36 34 31 27 24 23 21 21 23 28 23 18 9 15
167 165 150 133 100 144 160 133 206 237 247 105 27 218 215 217 224 213 124 83 212 167 171 174 178 186 182 175 174 175 170 168 165 161 149 143 133 121 122 114 111 105 99 90 85 85 87 88 94 91 82 82 83 83 81 79 80 79 83 86 88 87 90 90 87 84 77 74 70 70 67 64 59 56 51 48 41 37 40 39 36 38 37 33 33 31 28 21 19 21 19 17 17 18 17 8 10
207 161 163 188 165 171 201 164 218 207 243 105 34 157 189 234 254 69 123 170 185 196 172 174 177 178 176 175 175 173 173 171 176 172 163 163 153 147 134 127 123 112 103 100 97 96 95 93 96 95 87 83 82 84 84 83 83 82 85 87 86 84 84 85 83 81 75 73 69 66 62 59 54 52 46 46 39 34 35 34 32 32 32 31 27 25 23 20 15 16 20 15 15 17 14 359 6
197 190 175 184 199 202 256 194 342 310 96 26 67 113 254 20 258 277 168 121 76 147 323 175 175 174 174 172 173 172 176 180 181 177 175 167 161 153 146 137 125 119 114 112 110 104 98 97 96 96 95 89 91 89 89 89 84 86 88 92 93 93 91 87 84 81 76 74 71 67 64 63 60 56 51 49 36 35 39 35 31 32 31 27 24 17 11 17 8 7 11 11 8 9 3 354 357
199 33 194 238 204 181 223 183 229 274 68 104 249 197 227 172 166 15 40 35 3 332 294 278 172 171 165 160 161 170 178 187 185 182 180 173 166 161 153 141 133 128 129 124 121 115 108 104 105 106 106 100 98 97 98 98 97 95 96 97 98 95 91 86 81 79 79 79 76 75 70 67 68 62 57 54 41 40 36 36 31 27 22 19 13 12 6 6 5 356 5 7 1 1 352 351 342
97 242 18 300 234 15 271 19 325 74 221 193 184 240 297 243 100 69 15 112 224 169 212 192 188 169 149 158 179 187 187 185 184 185 182 177 170 166 156 146 140 138 139 134 129 125 118 114 114 113 113 114 110 109 106 106 105 102 97 93 89 88 91 92 89 83 80 76 76 76 73 66 62 64 62 47 33 27 17 9 12 16 11 6 3 2 360 357 354 348 355 357 352 355 341 337 336
165 140 204 195 5 108 105 129 83 75 250 256 147 240 226 101 176 133 156 160 194 196 189 192 187 176 171 186 192 195 188 183 181 184 182 176 176 176 166 158 152 149 149 144 139 132 128 125 124 122 120 120 119 114 111 109 107 102 94 92 92 90 90 91 93 92 86 78 73 68 70 67 61 53 44 28 19 18 16 5 1 2 1 357 355 355 354 351 347 341 347 338 337 340 322 315 315
109 213 197 82 248 338 217 256 114 213 256 269 144 214 212 147 241 123 155 204 206 205 194 190 185 177 189 197 199 195 187 181 177 181 181 183 181 177 174 169 162 158 149 142 137 132 133 133 135 132 133 128 125 119 112 109 106 101 99 94 89 89 91 91 92 92 85 83 77 74 71 65 52 45 41 30 23 16 11 5 358 352 352 349 349 348 349 344 342 336 337 329 331 327 317 311 306
264 104 94 176 184 196 152 286 245 201 240 267 202 219 243 200 204 133 196 200 203 202 183 177 188 193 199 199 200 193 177 168 177 186 185 183 181 181 182 174 165 156 148 141 139 143 144 144 142 138 131 128 123 115 112 106 105 102 101 98 98 93 91 92 92 90 84 74 65 60 60 59 56 43 40 30 19 12 2 352 346 342 340 337 338 338 336 334 332 326 330 326 329 329 322 317 314
57 113 136 8 301 260 160 203 338 27 273 39 250 132 244 186 214 176 195 199 195 177 179 199 199 193 192 197 194 193 186 182 182 185 187 184 186 187 181 174 171 164 157 151 153 157 159 153 147 130 124 127 127 125 125 118 113 111 108 104 95 96 93 94 87 85 77 69 63 63 64 67 58 46 39 25 17 5 358 351 348 345 341 341 341 339 339 334 327 327 323 321 320 316 310 307 307
146 179 178 155 89 329 343 18 199 229 249 243 291 276 211 174 169 183 189 190 187 176 192 193 192 194 199 197 191 188 180 175 182 184 182 183 184 186 177 173 164 158 158 162 167 168 162 158 153 150 144 142 136 132 127 123 121 120 116 109 107 101 95 88 86 83 87 83 78 73 66 62 62 43 22 10 12 6 359 353 344 343 343 339 340 337 337 333 328 325 320 316 313 312 307 304 301
182 171 186 182 149 169 190 225 84 258 225 249 211 260 98 134 50 351 8 1 301 203 194 182 191 199 196 193 196 182 170 180 184 183 180 182 183 183 172 166 160 162 170 175 173 168 163 167 162 156 149 140 137 137 133 129 124 116 108 102 96 92 92 99 97 92 90 94 86 69 52 40 39 31 18 6 9 1 351 343 337 332 334 332 331 331 328 328 324 321 318 316 312 312 309 306 305